Location: Bastelaar
(51.0950°N, 3.8602°E)
Time: 17:16:07
(UTC+00:00)

SL-19 R/B - Pass Details

Date: 18 November 2025
Orbit: 795 x 1008 km, 99.6° (Epoch: 10 December)

Event Time Altitude Azimuth Distance (km) Brightness Sun altitude
Rises 18:11:35 0° 166° (SSE) 3,301 7.2 -21.5°
Reaches altitude 10° 18:13:55 10° 168° (SSE) 2,366 6.4 -21.8°
Maximum altitude 18:19:06 77° 254° (WSW) 823 4.2 -22.6°
Drops below altitude 10° 18:24:22 10° 341° (NNW) 2,399 6.7 -23.5°
Sets 18:26:44 0° 343° (NNW) 3,350 7.5 -23.8°
